Location: *
(43.4667°N, 11.6833°E)
Time: 15:53:07
(UTC+00:00)

Cosmos 1666 Rocket - Pass Details

Date: 19 July 2019
Orbit: 603 x 634 km, 82.5° (Epoch: 21 August)

Event Time Altitude Azimuth Distance (km) Brightness Sun altitude
Exits shadow 21:10:30 40° 120° (ESE) 931 4.0 -19.3°
Maximum altitude 21:11:14 44° 93° (E) 877 4.0 -19.3°
Drops below altitude 10° 21:15:31 10° 21° (NNE) 2,027 6.7 -19.7°
Sets 21:17:49 0° 15° (NNE) 2,938 7.7 -19.9°
